Time,TemperatureF,DewpointF,PressureIn,WindDirection,WindDirectionDegrees,WindSpeedMPH,WindSpeedGustMPH,Humidity,HourlyPrecipIn,Conditions,Clouds,dailyrainin,SoftwareType,DateUTC
2017-12-15 00:12:00,17.8,12.0,29.98,North,360,5.0,7.0,79,0.00,,,0.00,weatherlink.com 1.10,2017-12-15 05:12:00,
2017-12-15 00:26:00,20.0,13.0,29.98,North,360,7.0,12.0,75,0.00,,,0.00,weatherlink.com 1.10,2017-12-15 05:26:00,
2017-12-15 00:42:00,20.6,14.0,29.97,North,360,4.0,9.0,76,0.00,,,0.00,weatherlink.com 1.10,2017-12-15 05:42:00,
2017-12-15 00:57:00,21.2,15.0,29.96,North,360,3.0,10.0,77,0.00,,,0.00,weatherlink.com 1.10,2017-12-15 05:57:00,
2017-12-15 01:11:00,21.2,16.0,29.96,North,360,5.0,10.0,79,0.00,,,0.00,weatherlink.com 1.10,2017-12-15 06:11:00,
2017-12-15 01:27:00,21.2,16.0,29.95,North,360,5.0,11.0,80,0.00,,,0.00,weatherlink.com 1.10,2017-12-15 06:27:00,
2017-12-15 01:42:00,20.7,15.0,29.95,North,360,5.0,6.0,80,0.00,,,0.00,weatherlink.com 1.10,2017-12-15 06:42:00,
2017-12-15 01:57:00,20.4,15.0,29.95,North,360,5.0,6.0,81,0.00,,,0.00,weatherlink.com 1.10,2017-12-15 06:57:00,
2017-12-15 02:12:00,20.6,16.0,29.94,North,360,2.0,6.0,83,0.00,,,0.00,weatherlink.com 1.10,2017-12-15 07:12:00,
2017-12-15 02:27:00,20.5,16.0,29.94,North,360,4.0,6.0,83,0.00,,,0.00,weatherlink.com 1.10,2017-12-15 07:27:00,
2017-12-15 02:42:00,20.0,16.0,29.93,WNW,284,1.0,4.0,84,0.00,,,0.00,weatherlink.com 1.10,2017-12-15 07:42:00,
2017-12-15 02:57:00,20.2,16.0,29.93,North,360,4.0,4.0,85,0.00,,,0.00,weatherlink.com 1.10,2017-12-15 07:57:00,
2017-12-15 03:12:00,19.7,16.0,29.93,WSW,239,2.0,4.0,84,0.00,,,0.00,weatherlink.com 1.10,2017-12-15 08:12:00,
2017-12-15 03:27:00,19.3,16.0,29.92,SW,229,2.0,4.0,86,0.00,,,0.00,weatherlink.com 1.10,2017-12-15 08:27:00,
2017-12-15 03:43:00,18.5,15.0,29.91,SSW,206,1.0,3.0,87,0.00,,,0.00,weatherlink.com 1.10,2017-12-15 08:43:00,
2017-12-15 03:57:00,18.2,16.0,29.91,South,176,2.0,3.0,89,0.00,,,0.00,weatherlink.com 1.10,2017-12-15 08:57:00,
2017-12-15 04:12:00,18.4,16.0,29.90,SSE,159,1.0,3.0,90,0.00,,,0.00,weatherlink.com 1.10,2017-12-15 09:12:00,
2017-12-15 04:27:00,18.8,16.0,29.89,North,360,1.0,3.0,90,0.00,,,0.00,weatherlink.com 1.10,2017-12-15 09:27:00,
2017-12-15 04:42:00,18.8,17.0,29.89,SSE,159,0.0,3.0,91,0.00,,,0.00,weatherlink.com 1.10,2017-12-15 09:42:00,
2017-12-15 04:57:00,18.9,17.0,29.88,SSE,159,0.0,2.0,91,0.00,,,0.00,weatherlink.com 1.10,2017-12-15 09:57:00,
2017-12-15 05:12:00,19.0,17.0,29.88,SSE,160,2.0,3.0,91,0.00,,,0.00,weatherlink.com 1.10,2017-12-15 10:12:00,
2017-12-15 05:27:00,19.5,17.0,29.87,SE,144,4.0,5.0,91,0.00,,,0.00,weatherlink.com 1.10,2017-12-15 10:27:00,
2017-12-15 05:42:00,20.1,18.0,29.87,SE,126,4.0,6.0,92,0.00,,,0.00,weatherlink.com 1.10,2017-12-15 10:42:00,
2017-12-15 05:57:00,20.2,18.0,29.86,SE,128,6.0,8.0,92,0.00,,,0.00,weatherlink.com 1.10,2017-12-15 10:57:00,
2017-12-15 06:27:00,20.0,18.0,29.86,ESE,122,2.0,7.0,92,0.00,,,0.00,weatherlink.com 1.10,2017-12-15 11:27:00,
2017-12-15 06:43:00,19.9,18.0,29.84,ESE,122,3.0,6.0,92,0.00,,,0.00,weatherlink.com 1.10,2017-12-15 11:43:00,
2017-12-15 06:57:00,20.3,18.0,29.84,SE,124,4.0,6.0,92,0.00,,,0.00,weatherlink.com 1.10,2017-12-15 11:57:00,
2017-12-15 07:13:00,20.6,19.0,29.83,ESE,121,3.0,6.0,93,0.00,,,0.00,weatherlink.com 1.10,2017-12-15 12:13:00,
2017-12-15 07:27:00,20.7,19.0,29.82,South,180,1.0,4.0,92,0.00,,,0.00,weatherlink.com 1.10,2017-12-15 12:27:00,
2017-12-15 07:42:00,21.7,20.0,29.82,North,360,3.0,6.0,93,0.00,,,0.00,weatherlink.com 1.10,2017-12-15 12:42:00,
2017-12-15 07:57:00,22.4,21.0,29.81,SE,140,5.0,9.0,92,0.00,,,0.00,weatherlink.com 1.10,2017-12-15 12:57:00,
2017-12-15 08:13:00,22.7,21.0,29.80,SSE,161,4.0,9.0,93,0.00,,,0.00,weatherlink.com 1.10,2017-12-15 13:13:00,
2017-12-15 08:28:00,23.1,21.0,29.79,SSE,165,4.0,8.0,93,0.00,,,0.00,weatherlink.com 1.10,2017-12-15 13:28:00,
2017-12-15 08:43:00,23.4,22.0,29.79,South,191,5.0,9.0,93,0.00,,,0.00,weatherlink.com 1.10,2017-12-15 13:43:00,
2017-12-15 09:13:00,23.8,22.0,29.78,SSE,163,2.0,7.0,93,0.00,,,0.00,weatherlink.com 1.10,2017-12-15 14:13:00,
2017-12-15 09:28:00,24.0,22.0,29.77,South,182,3.0,14.0,93,0.00,,,0.00,weatherlink.com 1.10,2017-12-15 14:28:00,
2017-12-15 09:43:00,24.2,23.0,29.77,South,179,6.0,13.0,93,0.00,,,0.00,weatherlink.com 1.10,2017-12-15 14:43:00,
2017-12-15 09:58:00,24.5,23.0,29.77,South,180,1.0,10.0,93,0.00,,,0.00,weatherlink.com 1.10,2017-12-15 14:58:00,
2017-12-15 10:14:00,24.8,23.0,29.76,North,360,4.0,10.0,93,0.00,,,0.00,weatherlink.com 1.10,2017-12-15 15:14:00,
2017-12-15 10:28:00,24.8,23.0,29.75,South,184,1.0,10.0,93,0.00,,,0.00,weatherlink.com 1.10,2017-12-15 15:28:00,
2017-12-15 10:43:00,24.8,23.0,29.75,South,176,4.0,14.0,92,0.00,,,0.00,weatherlink.com 1.10,2017-12-15 15:43:00,
2017-12-15 10:58:00,24.8,23.0,29.74,SSW,210,3.0,12.0,92,0.00,,,0.00,weatherlink.com 1.10,2017-12-15 15:58:00,
2017-12-15 11:13:00,24.9,23.0,29.74,South,180,6.0,12.0,93,0.00,,,0.00,weatherlink.com 1.10,2017-12-15 16:13:00,
2017-12-15 11:28:00,24.8,23.0,29.73,North,360,3.0,11.0,93,0.00,,,0.00,weatherlink.com 1.10,2017-12-15 16:28:00,
2017-12-15 11:43:00,25.0,23.0,29.72,SSW,201,3.0,7.0,93,0.00,,,0.00,weatherlink.com 1.10,2017-12-15 16:43:00,
2017-12-15 11:58:00,24.9,23.0,29.71,SW,223,2.0,11.0,93,0.00,,,0.00,weatherlink.com 1.10,2017-12-15 16:58:00,
2017-12-15 12:13:00,25.4,23.0,29.71,SW,226,5.0,10.0,92,0.00,,,0.00,weatherlink.com 1.10,2017-12-15 17:13:00,
2017-12-15 12:28:00,25.7,24.0,29.70,North,360,5.0,14.0,91,0.00,,,0.00,weatherlink.com 1.10,2017-12-15 17:28:00,
2017-12-15 12:43:00,25.7,23.0,29.70,WSW,237,5.0,10.0,90,0.00,,,0.00,weatherlink.com 1.10,2017-12-15 17:43:00,
2017-12-15 12:59:00,25.7,23.0,29.69,North,360,6.0,10.0,89,0.00,,,0.00,weatherlink.com 1.10,2017-12-15 17:59:00,
2017-12-15 13:14:00,24.6,22.0,29.69,North,360,5.0,13.0,90,0.00,,,0.00,weatherlink.com 1.10,2017-12-15 18:14:00,
2017-12-15 13:29:00,24.4,22.0,29.68,North,360,8.0,12.0,90,0.00,,,0.00,weatherlink.com 1.10,2017-12-15 18:29:00,
2017-12-15 13:43:00,24.2,21.0,29.68,North,360,8.0,12.0,88,0.00,,,0.00,weatherlink.com 1.10,2017-12-15 18:43:00,
2017-12-15 13:58:00,24.2,21.0,29.68,North,360,8.0,10.0,87,0.00,,,0.00,weatherlink.com 1.10,2017-12-15 18:58:00,
2017-12-15 14:13:00,24.1,20.0,29.68,North,360,7.0,13.0,84,0.00,,,0.00,weatherlink.com 1.10,2017-12-15 19:13:00,
2017-12-15 14:28:00,24.5,20.0,29.68,North,360,7.0,10.0,84,0.00,,,0.00,weatherlink.com 1.10,2017-12-15 19:28:00,
2017-12-15 14:43:00,24.3,20.0,29.68,North,360,5.0,9.0,83,0.00,,,0.00,weatherlink.com 1.10,2017-12-15 19:43:00,
2017-12-15 14:58:00,24.0,20.0,29.68,North,360,5.0,10.0,85,0.00,,,0.00,weatherlink.com 1.10,2017-12-15 19:58:00,
2017-12-15 15:13:00,24.0,20.0,29.68,North,360,4.0,9.0,84,0.00,,,0.00,weatherlink.com 1.10,2017-12-15 20:13:00,
2017-12-15 15:28:00,24.0,20.0,29.68,North,360,6.0,13.0,83,0.00,,,0.00,weatherlink.com 1.10,2017-12-15 20:28:00,
2017-12-15 15:43:00,24.2,20.0,29.68,North,360,9.0,12.0,83,0.00,,,0.00,weatherlink.com 1.10,2017-12-15 20:43:00,
2017-12-15 15:58:00,23.8,19.0,29.68,North,360,11.0,16.0,82,0.00,,,0.00,weatherlink.com 1.10,2017-12-15 20:58:00,
2017-12-15 16:14:00,23.3,19.0,29.69,North,360,6.0,11.0,82,0.00,,,0.00,weatherlink.com 1.10,2017-12-15 21:14:00,
2017-12-15 16:28:00,22.8,18.0,29.70,West,268,4.0,11.0,83,0.00,,,0.00,weatherlink.com 1.10,2017-12-15 21:28:00,
2017-12-15 16:43:00,22.2,18.0,29.70,North,360,7.0,10.0,84,0.00,,,0.00,weatherlink.com 1.10,2017-12-15 21:43:00,
2017-12-15 17:14:00,21.2,17.0,29.71,North,360,5.0,10.0,84,0.00,,,0.00,weatherlink.com 1.10,2017-12-15 22:14:00,
2017-12-15 17:28:00,20.8,17.0,29.71,WSW,258,4.0,7.0,85,0.00,,,0.00,weatherlink.com 1.10,2017-12-15 22:28:00,
2017-12-15 17:43:00,20.5,17.0,29.71,West,270,3.0,8.0,86,0.00,,,0.00,weatherlink.com 1.10,2017-12-15 22:43:00,
2017-12-15 17:59:00,21.8,18.0,29.72,North,360,8.0,11.0,86,0.00,,,0.00,weatherlink.com 1.10,2017-12-15 22:59:00,
2017-12-15 18:14:00,22.0,18.0,29.72,North,360,3.0,12.0,85,0.00,,,0.00,weatherlink.com 1.10,2017-12-15 23:14:00,
2017-12-15 18:28:00,21.7,18.0,29.72,North,360,6.0,12.0,85,0.00,,,0.00,weatherlink.com 1.10,2017-12-15 23:28:00,
2017-12-15 18:43:00,22.0,18.0,29.73,North,360,11.0,16.0,85,0.00,,,0.00,weatherlink.com 1.10,2017-12-15 23:43:00,
2017-12-15 18:59:00,22.8,20.0,29.73,North,360,17.0,21.0,89,0.00,,,0.00,weatherlink.com 1.10,2017-12-15 23:59:00,
2017-12-15 19:14:00,23.4,19.0,29.74,North,360,13.0,20.0,83,0.00,,,0.00,weatherlink.com 1.10,2017-12-16 00:14:00,